| time (UTC) | temp F | wind direction | speed MPH | gust MPH | rain 1hr in | rain 24hr in | rain mn in | humidity % | barometer mb |
| 20260905120506 | 71 | 60 | 0.0 | 0.0 | 0.00 | 0.14 | 0.00 | 96 | 1010.2 |
| 20260905120035 | 71 | 60 | 0.0 | 0.0 | 0.00 | 0.14 | 0.00 | 97 | 1010.0 |
| 20260905115559 | 70 | 60 | 0.0 | 0.0 | 0.00 | 0.14 | 0.00 | 97 | 1010.0 |
| 20260905115501 | 70 | 60 | 0.0 | 0.0 | 0.00 | 0.14 | 0.00 | 97 | 1010.0 |
| 20260905115037 | 70 | 60 | 0.0 | 0.0 | 0.00 | 0.14 | 0.00 | 97 | 1010.0 |
| 20260905114553 | 69 | 60 | 0.0 | 0.0 | 0.00 | 0.14 | 0.00 | 97 | 1009.9 |
| 20260905114024 | 69 | 60 | 0.0 | 0.0 | 0.00 | 0.14 | 0.00 | 97 | 1009.9 |
| 20260905113555 | 69 | 60 | 0.0 | 0.0 | 0.00 | 0.14 | 0.00 | 97 | 1009.9 |
| 20260905113025 | 68 | 319 | 0.0 | 0.0 | 0.00 | 0.14 | 0.00 | 96 | 1010.0 |
| 20260905112559 | 68 | 319 | 0.0 | 0.0 | 0.00 | 0.14 | 0.00 | 96 | 1009.9 |
| 20260905112502 | 68 | 319 | 0.0 | 0.0 | 0.00 | 0.14 | 0.00 | 96 | 1009.9 |
| 20260905112031 | 68 | 319 | 0.0 | 0.0 | 0.00 | 0.14 | 0.00 | 96 | 1010.1 |
| 20260905111553 | 68 | 319 | 0.0 | 0.0 | 0.00 | 0.14 | 0.00 | 96 | 1009.9 |
| 20260905111023 | 68 | 319 | 0.0 | 0.0 | 0.00 | 0.14 | 0.00 | 96 | 1009.9 |
| 20260905110552 | 68 | 319 | 0.0 | 0.0 | 0.00 | 0.14 | 0.00 | 96 | 1010.2 |
| 20260905110023 | 68 | 319 | 0.0 | 0.0 | 0.00 | 0.14 | 0.00 | 95 | 1010.1 |
| 20260905105556 | 68 | 319 | 0.0 | 0.0 | 0.00 | 0.14 | 0.00 | 95 | 1010.1 |
| 20260905105015 | 68 | 319 | 0.0 | 0.0 | 0.00 | 0.14 | 0.00 | 95 | 1009.8 |
| 20260905104546 | 68 | 319 | 0.0 | 0.0 | 0.00 | 0.14 | 0.00 | 94 | 1009.6 |
| 20260905104024 | 69 | 319 | 0.0 | 0.0 | 0.00 | 0.14 | 0.00 | 94 | 1009.4 |
| 20260905103553 | 69 | 319 | 0.0 | 0.0 | 0.00 | 0.14 | 0.00 | 94 | 1009.2 |
| 20260905103033 | 69 | 319 | 0.0 | 0.0 | 0.00 | 0.14 | 0.00 | 94 | 1009.1 |
| 20260905102558 | 69 | 319 | 0.0 | 0.0 | 0.00 | 0.14 | 0.00 | 94 | 1009.1 |
| 20260905102503 | 69 | 319 | 0.0 | 0.0 | 0.00 | 0.14 | 0.00 | 94 | 1009.0 |
| 20260905102020 | 69 | 319 | 0.0 | 1.0 | 0.00 | 0.14 | 0.00 | 94 | 1009.2 |
| 20260905101618 | 69 | 319 | 0.0 | 1.0 | 0.00 | 0.14 | 0.00 | 93 | 1009.1 |
| 20260905101024 | 69 | 319 | 0.0 | 3.0 | 0.00 | 0.14 | 0.00 | 93 | 1009.2 |
| 20260905100600 | 69 | 319 | 1.0 | 3.0 | 0.00 | 0.14 | 0.00 | 93 | 1009.1 |
| 20260905100501 | 69 | 319 | 1.0 | 3.0 | 0.00 | 0.14 | 0.00 | 93 | 1009.1 |
| 20260905100033 | 70 | 31 | 0.0 | 1.0 | 0.00 | 0.14 | 0.00 | 92 | 1009.1 |
| 20260905095505 | 70 | 31 | 0.0 | 2.0 | 0.00 | 0.14 | 0.00 | 92 | 1009.1 |
| 20260905095014 | 70 | 31 | 0.0 | 2.0 | 0.00 | 0.14 | 0.00 | 92 | 1009.1 |
| 20260905094551 | 70 | 118 | 0.0 | 3.0 | 0.00 | 0.14 | 0.00 | 92 | 1009.1 |
| 20260905094026 | 70 | 118 | 0.0 | 3.0 | 0.00 | 0.14 | 0.00 | 92 | 1009.1 |
| 20260905093602 | 70 | 104 | 0.0 | 2.0 | 0.00 | 0.14 | 0.00 | 92 | 1009.1 |
| 20260905093035 | 70 | 107 | 0.0 | 2.0 | 0.00 | 0.14 | 0.00 | 92 | 1009.0 |
| 20260905092504 | 70 | 82 | 0.0 | 2.0 | 0.00 | 0.14 | 0.00 | 92 | 1009.1 |
| 20260905092039 | 70 | 72 | 0.0 | 2.0 | 0.00 | 0.14 | 0.00 | 92 | 1009.0 |
| 20260905091510 | 70 | 36 | 0.0 | 1.0 | 0.00 | 0.14 | 0.00 | 92 | 1009.0 |
| 20260905091039 | 70 | 128 | 0.0 | 3.0 | 0.00 | 0.14 | 0.00 | 92 | 1009.0 |
| 20260905090514 | 70 | 128 | 1.0 | 3.0 | 0.00 | 0.14 | 0.00 | 93 | 1009.0 |
| 20260905090046 | 70 | 121 | 0.0 | 2.0 | 0.00 | 0.14 | 0.00 | 92 | 1009.1 |
| 20260905085523 | 70 | 121 | 0.0 | 2.0 | 0.00 | 0.14 | 0.00 | 92 | 1009.0 |
| 20260905085039 | 70 | 121 | 0.0 | 3.0 | 0.00 | 0.14 | 0.00 | 92 | 1009.1 |
| 20260905084520 | 70 | 121 | 1.0 | 3.0 | 0.00 | 0.14 | 0.00 | 92 | 1009.0 |
| 20260905084040 | 70 | 117 | 0.0 | 1.0 | 0.00 | 0.14 | 0.00 | 92 | 1009.0 |
| 20260905083510 | 70 | 117 | 0.0 | 3.0 | 0.00 | 0.14 | 0.00 | 92 | 1009.0 |
| 20260905083043 | 70 | 116 | 0.0 | 3.0 | 0.00 | 0.14 | 0.00 | 92 | 1009.0 |
| 20260905082557 | 70 | 77 | 1.0 | 2.0 | 0.00 | 0.14 | 0.00 | 91 | 1009.0 |
| 20260905082501 | 70 | 77 | 0.0 | 2.0 | 0.00 | 0.14 | 0.00 | 91 | 1009.0 |
| 20260905082032 | 70 | 286 | 0.0 | 2.0 | 0.00 | 0.14 | 0.00 | 91 | 1009.0 |
| 20260905081601 | 70 | 39 | 0.0 | 2.0 | 0.00 | 0.14 | 0.00 | 91 | 1009.1 |
| 20260905081502 | 70 | 38 | 1.0 | 2.0 | 0.00 | 0.14 | 0.00 | 90 | 1009.1 |
| 20260905081038 | 71 | 38 | 0.0 | 3.0 | 0.00 | 0.14 | 0.00 | 90 | 1009.1 |
| 20260905080508 | 71 | 92 | 1.0 | 4.0 | 0.00 | 0.14 | 0.00 | 90 | 1009.1 |
| 20260905080042 | 71 | 142 | 2.0 | 4.0 | 0.00 | 0.14 | 0.00 | 90 | 1009.2 |
| 20260905075518 | 71 | 138 | 0.0 | 2.0 | 0.00 | 0.14 | 0.00 | 90 | 1009.1 |
| 20260905075049 | 71 | 138 | 1.0 | 2.0 | 0.00 | 0.14 | 0.00 | 90 | 1009.2 |
| 20260905074518 | 71 | 138 | 0.0 | 2.0 | 0.00 | 0.14 | 0.00 | 89 | 1009.2 |
| 20260905074052 | 71 | 138 | 1.0 | 2.0 | 0.00 | 0.14 | 0.00 | 89 | 1009.3 |
| 20260905073516 | 71 | 102 | 0.0 | 2.0 | 0.00 | 0.14 | 0.00 | 89 | 1009.3 |
| 20260905073047 | 71 | 102 | 1.0 | 2.0 | 0.00 | 0.14 | 0.00 | 88 | 1009.4 |
| 20260905072518 | 72 | 155 | 0.0 | 1.0 | 0.00 | 0.14 | 0.00 | 88 | 1009.4 |
| 20260905072056 | 72 | 155 | 0.0 | 2.0 | 0.00 | 0.14 | 0.00 | 87 | 1009.4 |
| 20260905071530 | 72 | 155 | 0.0 | 2.0 | 0.00 | 0.14 | 0.00 | 87 | 1009.4 |
| 20260905071045 | 73 | 307 | 1.0 | 2.0 | 0.00 | 0.14 | 0.00 | 86 | 1009.4 |
| 20260905070513 | 73 | 208 | 0.0 | 4.0 | 0.00 | 0.14 | 0.00 | 85 | 1009.6 |
| 20260905070044 | 73 | 220 | 0.0 | 4.0 | 0.00 | 0.14 | 0.00 | 85 | 1009.6 |
| 20260905065517 | 73 | 216 | 1.0 | 6.0 | 0.00 | 0.14 | 0.00 | 85 | 1009.6 |
| 20260905065026 | 73 | 228 | 1.0 | 5.0 | 0.00 | 0.14 | 0.00 | 86 | 1009.7 |
| 20260905064600 | 72 | 318 | 2.0 | 6.0 | 0.00 | 0.14 | 0.00 | 87 | 1009.7 |
| 20260905064504 | 72 | 290 | 1.0 | 3.0 | 0.00 | 0.14 | 0.00 | 87 | 1009.7 |
| 20260905064044 | 72 | 162 | 1.0 | 3.0 | 0.00 | 0.14 | 0.00 | 87 | 1009.8 |
| 20260905063513 | 72 | 279 | 0.0 | 3.0 | 0.00 | 0.14 | 0.00 | 86 | 1009.8 |
| 20260905063049 | 72 | 298 | 2.0 | 5.0 | 0.00 | 0.14 | 0.00 | 87 | 1009.9 |
| 20260905062519 | 72 | 278 | 2.0 | 5.0 | 0.00 | 0.14 | 0.00 | 87 | 1009.9 |
| 20260905062046 | 72 | 312 | 1.0 | 6.0 | 0.00 | 0.14 | 0.00 | 88 | 1010.0 |
| 20260905061515 | 72 | 2 | 2.0 | 8.0 | 0.00 | 0.14 | 0.00 | 87 | 1010.0 |
| 20260905061051 | 73 | 5 | 2.0 | 8.0 | 0.00 | 0.14 | 0.00 | 87 | 1010.2 |
| 20260905060522 | 73 | 275 | 3.0 | 7.0 | 0.00 | 0.14 | 0.00 | 86 | 1010.3 |
| 20260905060054 | 73 | 318 | 2.0 | 5.0 | 0.00 | 0.14 | 0.00 | 86 | 1010.4 |
| 20260905055528 | 73 | 287 | 2.0 | 5.0 | 0.00 | 0.14 | 0.00 | 86 | 1010.4 |
| 20260905055054 | 73 | 308 | 1.0 | 4.0 | 0.00 | 0.14 | 0.00 | 87 | 1010.4 |
| 20260905054526 | 73 | 288 | 1.0 | 4.0 | 0.00 | 0.14 | 0.00 | 86 | 1010.6 |
| 20260905054058 | 73 | 20 | 2.0 | 4.0 | 0.00 | 0.14 | 0.00 | 86 | 1010.7 |
| 20260905053532 | 73 | 308 | 1.0 | 3.0 | 0.00 | 0.14 | 0.00 | 86 | 1010.7 |
| 20260905053004 | 73 | 308 | 0.0 | 3.0 | 0.00 | 0.18 | 0.14 | 86 | 1010.9 |
| 20260905052534 | 73 | 304 | 1.0 | 3.0 | 0.00 | 0.18 | 0.14 | 86 | 1010.9 |
| 20260905052013 | 73 | 275 | 1.0 | 4.0 | 0.00 | 0.18 | 0.14 | 86 | 1010.9 |
| 20260905051544 | 73 | 298 | 0.0 | 5.0 | 0.00 | 0.18 | 0.14 | 86 | 1011.0 |
| 20260905051019 | 73 | 296 | 1.0 | 5.0 | 0.00 | 0.18 | 0.14 | 86 | 1010.8 |
| 20260905050552 | 73 | 313 | 0.0 | 4.0 | 0.00 | 0.18 | 0.14 | 86 | 1010.8 |
| 20260905050022 | 73 | 303 | 1.0 | 4.0 | 0.00 | 0.18 | 0.14 | 86 | 1011.0 |
| 20260905045553 | 73 | 39 | 0.0 | 2.0 | 0.00 | 0.18 | 0.14 | 86 | 1010.9 |
| 20260905045026 | 73 | 177 | 0.0 | 3.0 | 0.00 | 0.18 | 0.14 | 86 | 1010.9 |
| 20260905044558 | 73 | 330 | 0.0 | 3.0 | 0.00 | 0.18 | 0.14 | 86 | 1010.9 |
| 20260905044020 | 73 | 322 | 0.0 | 4.0 | 0.00 | 0.18 | 0.14 | 86 | 1010.9 |
| 20260905043547 | 74 | 54 | 1.0 | 4.0 | 0.00 | 0.18 | 0.14 | 87 | 1011.0 |
| 20260905043022 | 74 | 289 | 1.0 | 5.0 | 0.00 | 0.21 | 0.14 | 87 | 1011.0 |
| 20260905042558 | 74 | 10 | 1.0 | 5.0 | 0.00 | 0.21 | 0.14 | 87 | 1011.0 |
| 20260905042035 | 73 | 4 | 2.0 | 5.0 | 0.00 | 0.21 | 0.14 | 87 | 1011.1 |
| 20260905041550 | 73 | 19 | 0.0 | 3.0 | 0.00 | 0.21 | 0.14 | 88 | 1011.0 |
| 20260905041023 | 73 | 325 | 0.0 | 3.0 | 0.00 | 0.21 | 0.14 | 87 | 1010.9 |
| 20260905040555 | 73 | 288 | 0.0 | 3.0 | 0.00 | 0.21 | 0.14 | 88 | 1011.0 |
| 20260905040025 | 73 | 340 | 1.0 | 2.0 | 0.00 | 0.21 | 0.14 | 89 | 1011.1 |
| 20260905035539 | 73 | 330 | 0.0 | 3.0 | 0.00 | 0.21 | 0.14 | 89 | 1011.2 |
| 20260905035009 | 73 | 40 | 0.0 | 3.0 | 0.00 | 0.21 | 0.14 | 90 | 1011.3 |
| 20260905034547 | 73 | 40 | 1.0 | 3.0 | 0.00 | 0.21 | 0.14 | 90 | 1011.4 |
| 20260905034013 | 72 | 23 | 0.0 | 3.0 | 0.00 | 0.21 | 0.14 | 90 | 1011.3 |
| 20260905033547 | 72 | 23 | 0.0 | 3.0 | 0.00 | 0.21 | 0.14 | 91 | 1011.2 |
| 20260905033022 | 72 | 25 | 2.0 | 6.0 | 0.00 | 0.56 | 0.14 | 91 | 1011.3 |
| 20260905032550 | 72 | 41 | 3.0 | 6.0 | 0.00 | 0.56 | 0.14 | 92 | 1011.4 |
| 20260905032021 | 72 | 41 | 2.0 | 6.0 | 0.00 | 0.56 | 0.14 | 93 | 1011.3 |
| 20260905031559 | 72 | 44 | 2.0 | 3.0 | 0.00 | 0.56 | 0.14 | 93 | 1011.3 |
| 20260905031034 | 72 | 46 | 1.0 | 2.0 | 0.00 | 0.56 | 0.14 | 92 | 1011.3 |
| 20260905030507 | 72 | 29 | 1.0 | 2.0 | 0.00 | 0.56 | 0.14 | 92 | 1011.3 |
| 20260905030041 | 73 | 29 | 0.0 | 2.0 | 0.00 | 0.56 | 0.14 | 92 | 1011.3 |
| 20260905025513 | 73 | 330 | 0.0 | 4.0 | 0.00 | 0.56 | 0.14 | 92 | 1011.3 |
| 20260905025027 | 73 | 330 | 0.0 | 4.0 | 0.00 | 0.56 | 0.14 | 91 | 1011.3 |
| 20260905024507 | 73 | 55 | 0.0 | 3.0 | 0.00 | 0.56 | 0.14 | 91 | 1011.3 |
| 20260905024047 | 73 | 55 | 0.0 | 4.0 | 0.00 | 0.56 | 0.14 | 91 | 1011.2 |
| 20260905023515 | 73 | 34 | 1.0 | 4.0 | 0.00 | 0.56 | 0.14 | 91 | 1011.2 |
| 20260905023051 | 73 | 55 | 0.0 | 2.0 | 0.00 | 0.56 | 0.14 | 91 | 1011.2 |
| 20260905022523 | 73 | 68 | 0.0 | 4.0 | 0.00 | 0.56 | 0.14 | 90 | 1011.0 |
| 20260905022053 | 73 | 68 | 0.0 | 4.0 | 0.00 | 0.56 | 0.14 | 91 | 1011.0 |
| 20260905021524 | 72 | 306 | 0.0 | 2.0 | 0.00 | 0.56 | 0.14 | 92 | 1011.0 |
| 20260905021003 | 72 | 182 | 0.0 | 2.0 | 0.00 | 0.56 | 0.14 | 92 | 1010.9 |
| 20260905020541 | 73 | 182 | 0.0 | 2.0 | 0.00 | 0.56 | 0.14 | 92 | 1011.0 |
| 20260905020014 | 73 | 236 | 0.0 | 1.0 | 0.00 | 0.56 | 0.14 | 91 | 1011.0 |
| 20260905015549 | 73 | 346 | 0.0 | 1.0 | 0.00 | 0.56 | 0.14 | 91 | 1010.9 |
| 20260905015010 | 73 | 346 | 0.0 | 3.0 | 0.00 | 0.56 | 0.14 | 91 | 1010.7 |
| 20260905014521 | 73 | 346 | 0.0 | 3.0 | 0.00 | 0.56 | 0.14 | 90 | 1010.6 |
| 20260905014059 | 73 | 327 | 0.0 | 2.0 | 0.00 | 0.56 | 0.14 | 91 | 1010.6 |
| 20260905013533 | 74 | 327 | 0.0 | 2.0 | 0.00 | 0.56 | 0.14 | 90 | 1010.5 |
| 20260905013005 | 74 | 87 | 0.0 | 2.0 | 0.00 | 0.56 | 0.14 | 88 | 1010.3 |
| 20260905012525 | 74 | 87 | 0.0 | 2.0 | 0.00 | 0.56 | 0.14 | 88 | 1010.2 |
| 20260905012039 | 74 | 40 | 0.0 | 1.0 | 0.00 | 0.56 | 0.14 | 87 | 1010.3 |
| 20260905011511 | 75 | 40 | 0.0 | 4.0 | 0.00 | 0.56 | 0.14 | 87 | 1010.3 |
| 20260905011046 | 74 | 40 | 0.0 | 4.0 | 0.00 | 0.56 | 0.14 | 88 | 1010.1 |
| 20260905010512 | 74 | 69 | 1.0 | 6.0 | 0.00 | 0.56 | 0.14 | 89 | 1010.1 |
| 20260905010046 | 73 | 55 | 2.0 | 6.0 | 0.00 | 0.56 | 0.14 | 91 | 1010.1 |
| 20260905005523 | 72 | 57 | 4.0 | 7.0 | 0.00 | 0.56 | 0.14 | 94 | 1010.1 |
| 20260905005051 | 72 | 27 | 2.0 | 5.0 | 0.00 | 0.56 | 0.14 | 96 | 1010.0 |
| 20260905004523 | 72 | 64 | 1.0 | 3.0 | 0.00 | 0.56 | 0.14 | 97 | 1010.0 |
| 20260905004059 | 72 | 7 | 0.0 | 2.0 | 0.00 | 0.56 | 0.14 | 97 | 1009.9 |
| 20260905003533 | 72 | 39 | 0.0 | 1.0 | 0.00 | 0.56 | 0.14 | 97 | 1009.9 |
| 20260905003003 | 72 | 333 | 0.0 | 2.0 | 0.00 | 0.56 | 0.14 | 97 | 1009.9 |
| 20260905002530 | 72 | 333 | 0.0 | 4.0 | 0.00 | 0.56 | 0.14 | 97 | 1010.0 |
| 20260905002005 | 72 | 102 | 1.0 | 4.0 | 0.00 | 0.56 | 0.14 | 96 | 1009.9 |
| 20260905001537 | 72 | 114 | 0.0 | 0.0 | 0.00 | 0.56 | 0.14 | 96 | 1010.0 |
| 20260905001009 | 72 | 166 | 0.0 | 1.0 | 0.00 | 0.56 | 0.14 | 96 | 1010.0 |
| 20260905000543 | 72 | 166 | 0.0 | 1.0 | 0.00 | 0.56 | 0.14 | 96 | 1009.9 |
| 20260905000059 | 72 | 229 | 0.0 | 0.0 | 0.00 | 0.56 | 0.14 | 96 | 1009.9 |
| 20260905000002 | 72 | 229 | 0.0 | 0.0 | 0.00 | 0.56 | 0.14 | 96 | 1009.9 |
| 20260904235531 | 72 | 229 | 0.0 | 0.0 | 0.00 | 0.56 | 0.14 | 96 | 1009.9 |
| 20260904235007 | 72 | 229 | 0.0 | 0.0 | 0.00 | 0.56 | 0.14 | 96 | 1010.0 |
| 20260904234546 | 73 | 229 | 0.0 | 2.0 | 0.00 | 0.56 | 0.14 | 96 | 1010.0 |
| 20260904234013 | 73 | 229 | 0.0 | 1.0 | 0.00 | 0.56 | 0.14 | 96 | 1010.1 |
| 20260904233545 | 73 | 218 | 0.0 | 3.0 | 0.00 | 0.56 | 0.14 | 96 | 1010.3 |
| 20260904233017 | 73 | 218 | 1.0 | 3.0 | 0.00 | 0.56 | 0.14 | 95 | 1010.2 |
| 20260904232549 | 73 | 215 | 1.0 | 3.0 | 0.00 | 0.56 | 0.14 | 95 | 1010.1 |
| 20260904232026 | 73 | 283 | 1.0 | 3.0 | 0.00 | 0.56 | 0.14 | 95 | 1010.1 |
| 20260904231556 | 73 | 330 | 0.0 | 0.0 | 0.00 | 0.56 | 0.14 | 95 | 1010.3 |
| 20260904231031 | 73 | 330 | 0.0 | 1.0 | 0.00 | 0.56 | 0.14 | 95 | 1010.3 |
| 20260904230601 | 73 | 330 | 0.0 | 2.0 | 0.00 | 0.56 | 0.14 | 95 | 1010.4 |
| 20260904230033 | 73 | 330 | 0.0 | 1.0 | 0.00 | 0.56 | 0.14 | 95 | 1010.3 |
| 20260904225505 | 73 | 2 | 0.0 | 2.0 | 0.00 | 0.56 | 0.14 | 95 | 1010.4 |
| 20260904225038 | 73 | 2 | 1.0 | 2.0 | 0.00 | 0.56 | 0.14 | 94 | 1010.5 |
| 20260904224521 | 73 | 2 | 1.0 | 3.0 | 0.00 | 0.56 | 0.14 | 94 | 1010.5 |
| 20260904224050 | 73 | 341 | 1.0 | 3.0 | 0.00 | 0.56 | 0.14 | 94 | 1010.4 |
| 20260904223521 | 73 | 23 | 1.0 | 3.0 | 0.00 | 0.56 | 0.14 | 94 | 1010.4 |
| 20260904223043 | 73 | 300 | 1.0 | 3.0 | 0.00 | 0.56 | 0.14 | 94 | 1010.3 |
| 20260904222510 | 73 | 33 | 2.0 | 3.0 | 0.00 | 0.56 | 0.14 | 94 | 1010.4 |
| 20260904222042 | 73 | 9 | 0.0 | 2.0 | 0.00 | 0.56 | 0.14 | 94 | 1010.3 |
| 20260904221514 | 73 | 9 | 1.0 | 3.0 | 0.00 | 0.56 | 0.14 | 94 | 1010.5 |
| 20260904221050 | 73 | 9 | 1.0 | 3.0 | 0.00 | 0.56 | 0.14 | 94 | 1010.4 |
| 20260904220523 | 73 | 296 | 0.0 | 3.0 | 0.00 | 0.56 | 0.14 | 94 | 1010.4 |
| 20260904220054 | 73 | 312 | 1.0 | 4.0 | 0.00 | 0.56 | 0.14 | 93 | 1010.5 |
| 20260904215528 | 73 | 342 | 1.0 | 5.0 | 0.00 | 0.56 | 0.14 | 93 | 1010.8 |
| 20260904215004 | 73 | 1 | 2.0 | 5.0 | 0.00 | 0.56 | 0.14 | 93 | 1011.0 |
| 20260904214546 | 73 | 15 | 1.0 | 4.0 | 0.00 | 0.56 | 0.14 | 93 | 1010.9 |
| 20260904214012 | 73 | 301 | 0.0 | 4.0 | 0.00 | 0.56 | 0.14 | 93 | 1010.8 |
| 20260904213544 | 73 | 338 | 1.0 | 4.0 | 0.00 | 0.56 | 0.14 | 92 | 1010.9 |
| 20260904213017 | 73 | 18 | 0.0 | 3.0 | 0.00 | 0.56 | 0.14 | 92 | 1010.7 |
| 20260904212551 | 73 | 7 | 0.0 | 2.0 | 0.00 | 0.56 | 0.14 | 93 | 1010.7 |
| 20260904212025 | 73 | 7 | 0.0 | 4.0 | 0.00 | 0.56 | 0.14 | 93 | 1011.0 |
| 20260904211604 | 73 | 290 | 0.0 | 4.0 | 0.00 | 0.56 | 0.14 | 93 | 1011.1 |
| 20260904211032 | 73 | 21 | 1.0 | 4.0 | 0.00 | 0.56 | 0.14 | 93 | 1011.1 |
| 20260904210546 | 73 | 25 | 1.0 | 3.0 | 0.02 | 0.56 | 0.14 | 92 | 1011.2 |
| 20260904210023 | 73 | 13 | 0.0 | 3.0 | 0.14 | 0.56 | 0.14 | 93 | 1011.3 |
| 20260904205553 | 73 | 296 | 1.0 | 3.0 | 0.14 | 0.56 | 0.14 | 94 | 1011.3 |
| 20260904205020 | 74 | 308 | 1.0 | 6.0 | 0.14 | 0.56 | 0.14 | 93 | 1011.3 |
| 20260904204550 | 74 | 223 | 1.0 | 6.0 | 0.14 | 0.56 | 0.14 | 94 | 1011.5 |
| 20260904204009 | 74 | 17 | 0.0 | 9.0 | 0.14 | 0.56 | 0.14 | 93 | 1011.6 |
| 20260904203542 | 74 | 318 | 2.0 | 9.0 | 0.14 | 0.56 | 0.14 | 92 | 1011.5 |
| 20260904203014 | 75 | 30 | 3.0 | 7.0 | 0.14 | 0.56 | 0.14 | 92 | 1011.5 |
| 20260904202548 | 75 | 25 | 1.0 | 4.0 | 0.14 | 0.56 | 0.14 | 91 | 1011.5 |
| 20260904202024 | 76 | 286 | 0.0 | 9.0 | 0.14 | 0.56 | 0.14 | 90 | 1011.4 |
| 20260904201540 | 77 | 27 | 5.0 | 11.0 | 0.14 | 0.56 | 0.14 | 88 | 1011.4 |
| 20260904201014 | 78 | 234 | 3.0 | 19.0 | 0.14 | 0.56 | 0.14 | 84 | 1010.9 |
| 20260904200546 | 81 | 55 | 9.0 | 19.0 | 0.10 | 0.52 | 0.11 | 79 | 1011.8 |
| 20260904200028 | 85 | 339 | 0.0 | 4.0 | 0.00 | 0.42 | 0.00 | 77 | 1011.3 |
| 20260904195554 | 85 | 229 | 0.0 | 2.0 | 0.00 | 0.42 | 0.00 | 75 | 1010.7 |
| 20260904195012 | 86 | 128 | 0.0 | 3.0 | 0.00 | 0.42 | 0.00 | 73 | 1010.4 |
| 20260904194528 | 86 | 167 | 0.0 | 3.0 | 0.00 | 0.42 | 0.00 | 74 | 1010.2 |
| 20260904194004 | 86 | 117 | 0.0 | 2.0 | 0.00 | 0.42 | 0.00 | 72 | 1010.4 |
| 20260904193538 | 86 | 138 | 0.0 | 4.0 | 0.00 | 0.42 | 0.00 | 71 | 1010.1 |
| 20260904193015 | 87 | 155 | 1.0 | 4.0 | 0.00 | 0.42 | 0.00 | 69 | 1010.2 |
| 20260904192525 | 87 | 148 | 0.0 | 0.0 | 0.00 | 0.42 | 0.00 | 70 | 1010.4 |
| 20260904192004 | 87 | 94 | 0.0 | 0.0 | 0.00 | 0.42 | 0.00 | 70 | 1010.4 |
| 20260904191536 | 87 | 67 | 0.0 | 5.0 | 0.00 | 0.42 | 0.00 | 68 | 1010.3 |
| 20260904191008 | 88 | 67 | 1.0 | 6.0 | 0.00 | 0.42 | 0.00 | 67 | 1010.1 |
| 20260904190534 | 88 | 66 | 2.0 | 6.0 | 0.00 | 0.42 | 0.00 | 67 | 1010.3 |
| 20260904190013 | 88 | 104 | 0.0 | 5.0 | 0.00 | 0.42 | 0.00 | 68 | 1010.4 |
| 20260904185545 | 88 | 117 | 2.0 | 4.0 | 0.00 | 0.42 | 0.00 | 68 | 1010.4 |
| 20260904185020 | 88 | 313 | 0.0 | 9.0 | 0.00 | 0.42 | 0.00 | 68 | 1010.4 |
| 20260904184602 | 87 | 331 | 3.0 | 9.0 | 0.00 | 0.42 | 0.00 | 67 | 1010.5 |
| 20260904184029 | 88 | 22 | 4.0 | 8.0 | 0.00 | 0.42 | 0.00 | 68 | 1010.7 |
| 20260904183543 | 88 | 24 | 0.0 | 5.0 | 0.00 | 0.42 | 0.00 | 72 | 1010.9 |
| 20260904183013 | 87 | 38 | 1.0 | 3.0 | 0.00 | 0.42 | 0.00 | 71 | 1011.1 |
| 20260904182546 | 87 | 57 | 0.0 | 3.0 | 0.00 | 0.42 | 0.00 | 69 | 1011.3 |
| 20260904182015 | 87 | 42 | 1.0 | 4.0 | 0.00 | 0.42 | 0.00 | 71 | 1011.2 |
| 20260904181550 | 87 | 342 | 1.0 | 5.0 | 0.00 | 0.42 | 0.00 | 71 | 1011.4 |
| 20260904181032 | 87 | 93 | 2.0 | 7.0 | 0.00 | 0.42 | 0.00 | 70 | 1011.6 |
| 20260904180601 | 87 | 75 | 0.0 | 7.0 | 0.00 | 0.42 | 0.00 | 69 | 1011.5 |
| 20260904180016 | 86 | 18 | 0.0 | 9.0 | 0.00 | 0.42 | 0.00 | 72 | 1011.7 |
| 20260904175550 | 86 | 45 | 1.0 | 9.0 | 0.00 | 0.42 | 0.00 | 72 | 1011.7 |
| 20260904175023 | 86 | 11 | 4.0 | 7.0 | 0.00 | 0.42 | 0.00 | 71 | 1011.7 |
| 20260904174504 | 86 | 55 | 3.0 | 5.0 | 0.00 | 0.42 | 0.00 | 69 | 1011.7 |
| 20260904174038 | 86 | 272 | 0.0 | 5.0 | 0.00 | 0.42 | 0.00 | 73 | 1011.7 |
| 20260904173509 | 85 | 340 | 0.0 | 7.0 | 0.00 | 0.42 | 0.00 | 70 | 1011.9 |
| 20260904173030 | 85 | 273 | 1.0 | 7.0 | 0.00 | 0.42 | 0.00 | 70 | 1011.9 |
| 20260904172507 | 85 | 75 | 1.0 | 6.0 | 0.00 | 0.42 | 0.00 | 72 | 1011.9 |
| 20260904172037 | 84 | 29 | 3.0 | 10.0 | 0.00 | 0.42 | 0.00 | 71 | 1011.9 |
| 20260904171512 | 84 | 82 | 6.0 | 10.0 | 0.00 | 0.42 | 0.00 | 72 | 1012.0 |
| 20260904171043 | 84 | 70 | 5.0 | 10.0 | 0.00 | 0.42 | 0.00 | 72 | 1012.1 |
| 20260904170516 | 84 | 40 | 6.0 | 10.0 | 0.00 | 0.42 | 0.00 | 71 | 1012.2 |
| 20260904170034 | 84 | 13 | 5.0 | 10.0 | 0.00 | 0.42 | 0.00 | 72 | 1012.2 |
| 20260904165510 | 84 | 60 | 1.0 | 10.0 | 0.00 | 0.42 | 0.00 | 73 | 1012.1 |
| 20260904165041 | 83 | 45 | 5.0 | 10.0 | 0.00 | 0.42 | 0.00 | 72 | 1012.3 |
| 20260904164508 | 83 | 90 | 4.0 | 9.0 | 0.00 | 0.42 | 0.00 | 72 | 1012.3 |
| 20260904164043 | 83 | 67 | 3.0 | 9.0 | 0.00 | 0.42 | 0.00 | 73 | 1012.4 |
| 20260904163513 | 83 | 39 | 6.0 | 10.0 | 0.00 | 0.42 | 0.00 | 71 | 1012.6 |
| 20260904163058 | 83 | 31 | 4.0 | 10.0 | 0.00 | 0.42 | 0.00 | 74 | 1012.6 |
| 20260904162527 | 83 | 103 | 4.0 | 9.0 | 0.00 | 0.42 | 0.00 | 72 | 1012.6 |
| 20260904162055 | 83 | 44 | 6.0 | 9.0 | 0.00 | 0.42 | 0.00 | 73 | 1012.6 |
| 20260904161531 | 83 | 78 | 2.0 | 6.0 | 0.00 | 0.42 | 0.00 | 72 | 1012.7 |
| 20260904161044 | 83 | 49 | 1.0 | 10.0 | 0.00 | 0.42 | 0.00 | 74 | 1012.6 |
| 20260904160516 | 83 | 72 | 7.0 | 10.0 | 0.00 | 0.42 | 0.00 | 71 | 1012.6 |
| 20260904160048 | 83 | 61 | 1.0 | 9.0 | 0.00 | 0.42 | 0.00 | 74 | 1012.6 |
| 20260904155519 | 82 | 124 | 5.0 | 9.0 | 0.00 | 0.42 | 0.00 | 73 | 1012.6 |
| 20260904155049 | 82 | 128 | 2.0 | 7.0 | 0.00 | 0.42 | 0.00 | 74 | 1012.6 |
| 20260904154525 | 82 | 79 | 4.0 | 7.0 | 0.00 | 0.42 | 0.00 | 73 | 1012.7 |
| 20260904154039 | 82 | 107 | 3.0 | 8.0 | 0.00 | 0.42 | 0.00 | 75 | 1012.7 |
| 20260904153514 | 82 | 106 | 2.0 | 10.0 | 0.00 | 0.42 | 0.00 | 73 | 1012.7 |
| 20260904153055 | 82 | 103 | 6.0 | 9.0 | 0.00 | 0.42 | 0.00 | 73 | 1012.7 |
| 20260904152514 | 82 | 51 | 2.0 | 8.0 | 0.00 | 0.42 | 0.00 | 77 | 1012.7 |
| 20260904152050 | 81 | 156 | 5.0 | 10.0 | 0.00 | 0.42 | 0.00 | 74 | 1012.9 |
| 20260904151523 | 81 | 67 | 6.0 | 10.0 | 0.00 | 0.42 | 0.00 | 73 | 1012.8 |
| 20260904151051 | 81 | 43 | 5.0 | 10.0 | 0.00 | 0.42 | 0.00 | 73 | 1012.8 |
| 20260904150525 | 81 | 88 | 4.0 | 10.0 | 0.00 | 0.42 | 0.00 | 74 | 1012.8 |
| 20260904150059 | 81 | 138 | 6.0 | 10.0 | 0.00 | 0.42 | 0.00 | 73 | 1012.9 |
| 20260904150002 | 81 | 100 | 6.0 | 10.0 | 0.00 | 0.42 | 0.00 | 74 | 1012.9 |
| 20260904145533 | 81 | 27 | 4.0 | 9.0 | 0.00 | 0.42 | 0.00 | 75 | 1012.9 |
| 20260904145003 | 81 | 59 | 4.0 | 10.0 | 0.00 | 0.42 | 0.00 | 74 | 1013.1 |
| 20260904144534 | 81 | 28 | 4.0 | 9.0 | 0.00 | 0.42 | 0.00 | 75 | 1013.1 |
| 20260904144007 | 81 | 92 | 4.0 | 9.0 | 0.00 | 0.42 | 0.00 | 73 | 1013.1 |
| 20260904143539 | 81 | 68 | 5.0 | 9.0 | 0.00 | 0.42 | 0.00 | 73 | 1013.1 |
| 20260904143012 | 80 | 102 | 3.0 | 9.0 | 0.00 | 0.42 | 0.00 | 74 | 1013.2 |
| 20260904142540 | 80 | 79 | 4.0 | 10.0 | 0.00 | 0.42 | 0.00 | 75 | 1013.2 |
| 20260904142013 | 80 | 48 | 7.0 | 10.0 | 0.00 | 0.42 | 0.00 | 76 | 1013.1 |
| 20260904141529 | 80 | 31 | 5.0 | 9.0 | 0.00 | 0.42 | 0.00 | 76 | 1013.1 |
| 20260904141003 | 80 | 77 | 2.0 | 9.0 | 0.00 | 0.42 | 0.00 | 75 | 1013.1 |
| 20260904140537 | 80 | 86 | 4.0 | 11.0 | 0.00 | 0.42 | 0.00 | 75 | 1013.1 |
| 20260904140009 | 79 | 61 | 4.0 | 11.0 | 0.00 | 0.42 | 0.00 | 75 | 1013.1 |
| 20260904135543 | 79 | 48 | 7.0 | 11.0 | 0.00 | 0.42 | 0.00 | 77 | 1013.2 |
| 20260904135058 | 79 | 58 | 3.0 | 8.0 | 0.00 | 0.42 | 0.00 | 79 | 1013.2 |
| 20260904134533 | 79 | 92 | 4.0 | 8.0 | 0.00 | 0.42 | 0.00 | 78 | 1013.1 |
| 20260904134005 | 79 | 47 | 3.0 | 6.0 | 0.00 | 0.42 | 0.00 | 82 | 1013.2 |
| 20260904133537 | 78 | 90 | 2.0 | 6.0 | 0.00 | 0.42 | 0.00 | 80 | 1013.1 |
| 20260904133053 | 78 | 61 | 2.0 | 6.0 | 0.00 | 0.42 | 0.00 | 80 | 1013.1 |
| 20260904132513 | 78 | 106 | 0.0 | 3.0 | 0.00 | 0.42 | 0.00 | 83 | 1013.0 |
| 20260904132041 | 77 | 18 | 0.0 | 5.0 | 0.00 | 0.42 | 0.00 | 81 | 1013.0 |
| 20260904131507 | 77 | 112 | 3.0 | 6.0 | 0.00 | 0.42 | 0.00 | 82 | 1013.0 |
| 20260904131039 | 77 | 52 | 2.0 | 6.0 | 0.00 | 0.42 | 0.00 | 82 | 1012.9 |
| 20260904130551 | 76 | 121 | 3.0 | 6.0 | 0.00 | 0.42 | 0.00 | 82 | 1013.0 |
| 20260904130023 | 76 | 106 | 2.0 | 5.0 | 0.00 | 0.42 | 0.00 | 84 | 1013.1 |
| 20260904125555 | 76 | 70 | 3.0 | 8.0 | 0.00 | 0.42 | 0.00 | 85 | 1013.1 |
| 20260904125032 | 76 | 55 | 4.0 | 9.0 | 0.00 | 0.42 | 0.00 | 85 | 1013.2 |
| 20260904124503 | 75 | 27 | 5.0 | 9.0 | 0.00 | 0.42 | 0.00 | 87 | 1013.2 |
| 20260904124032 | 75 | 62 | 3.0 | 7.0 | 0.00 | 0.42 | 0.00 | 89 | 1013.1 |
| 20260904123509 | 74 | 79 | 2.0 | 8.0 | 0.00 | 0.42 | 0.00 | 89 | 1013.1 |
| 20260904123101 | 74 | 21 | 4.0 | 8.0 | 0.00 | 0.42 | 0.00 | 89 | 1013.2 |
| 20260904122515 | 74 | 69 | 2.0 | 4.0 | 0.00 | 0.42 | 0.00 | 90 | 1013.3 |
| 20260904122045 | 73 | 52 | 2.0 | 4.0 | 0.00 | 0.42 | 0.00 | 90 | 1013.3 |
| 20260904121518 | 73 | 75 | 1.0 | 3.0 | 0.00 | 0.42 | 0.00 | 90 | 1013.2 |
| 20260904121048 | 72 | 61 | 0.0 | 3.0 | 0.00 | 0.42 | 0.00 | 92 | 1012.8 |